Humidity-temperature Sensor

Selected Measurement Type: Relative Humidity

 
Relative Humidity [%]     6 entries per hour
Showing data from 3/31/2015 (00:00:00 Z) to 3/24/2015 (00:01:00 Z)
Previous Next [ Day | 3-Days | 7-Days ]
First Last
Prev [ Day | 3-Days | 7-Days ] Next
First Last

Start Time:     :
End Time:     :     
Time (in GMT) :00 :50 :40 :30 :20 :10
Previous Next [ Day | 3-Days | 7-Days ]
First Last
Prev [ Day | 3-Days | 7-Days ] Next
First Last


123 => good data
MM => data is determined as missing
-- => data not received/configured
Back to Top Back to Top
3/31/2015 00:00 to 23:10 94.90 95.09 95.32 95.05 95.17 95.00
3/30/2015 23:00 to 22:10 94.73 93.40 93.53 91.78 93.51 94.53
3/30/2015 22:00 to 21:10 95.13 93.96 92.93 91.93 93.15 93.76
3/30/2015 21:00 to 20:10 94.09 93.11 92.26 92.53 92.32 90.76
3/30/2015 20:00 to 19:10 88.56 86.92 88.58 89.31 89.70 88.12
3/30/2015 19:00 to 18:10 87.83 90.45 90.78 90.93 92.01 93.88
3/30/2015 18:00 to 17:10 95.90 95.65 94.94 94.36 93.36 92.84
3/30/2015 17:00 to 16:10 92.45 92.49 92.34 91.72 91.43 91.12
3/30/2015 16:00 to 15:10 91.14 91.05 91.49 92.20 93.26 95.50
3/30/2015 15:00 to 14:10 94.82 94.67 94.38 90.72 90.16 84.80
3/30/2015 14:00 to 13:10 82.45 84.96 86.79 87.58 92.41 95.17
3/30/2015 13:00 to 12:10 97.12 97.15 92.09 88.56 87.92 87.17
3/30/2015 12:00 to 11:10 87.21 85.61 85.84 86.77 86.56 87.52
3/30/2015 11:00 to 10:10 87.71 89.70 85.48 87.21 86.13 85.28
3/30/2015 10:00 to 9:10 87.54 86.69 85.86 85.82 86.65 87.21
3/30/2015 09:00 to 8:10 86.15 86.50 85.28 86.00 86.86 86.02
3/30/2015 08:00 to 7:10 88.85 85.07 86.77 85.46 85.34 84.94
3/30/2015 07:00 to 6:10 88.93 92.39 93.38 92.68 92.20 92.03
3/30/2015 06:00 to 5:10 85.73 86.02 86.00 85.61 84.88 84.86
3/30/2015 05:00 to 4:10 84.30 85.42 86.73 87.98 87.96 88.39
3/30/2015 04:00 to 3:10 87.96 88.77 88.48 88.98 89.08 89.25
3/30/2015 03:00 to 2:10 89.06 89.12 91.12 92.07 90.45 90.35
3/30/2015 02:00 to 1:10 91.10 91.30 93.69 94.59 94.46 94.80
3/30/2015 01:00 to 0:10 96.09 97.42 97.44 96.60 93.80 83.90
3/30/2015 00:00 to 23:10 83.78 84.17 84.13 83.18 82.95 82.82
3/29/2015 23:00 to 22:10 -- -- -- -- -- --
3/29/2015 22:00 to 21:10 82.39 84.59 84.98 84.36 85.38 86.21
3/29/2015 21:00 to 20:10 86.32 86.07 88.08 87.25 87.23 86.04
3/29/2015 20:00 to 19:10 85.25 84.57 85.94 86.46 86.73 87.23
3/29/2015 19:00 to 18:10 85.94 86.61 87.23 86.61 87.08 86.11
3/29/2015 18:00 to 17:10 86.90 87.50 87.23 87.92 88.58 87.94
3/29/2015 17:00 to 16:10 89.52 89.33 87.89 88.85 89.97 89.41
3/29/2015 16:00 to 15:10 89.02 89.56 89.06 88.48 88.85 89.02
3/29/2015 15:00 to 14:10 87.92 88.96 90.93 90.45 90.85 92.49
3/29/2015 14:00 to 13:10 94.63 91.78 87.79 84.24 84.24 85.34
3/29/2015 13:00 to 12:10 84.84 84.24 83.80 86.44 88.25 88.91
3/29/2015 12:00 to 11:10 87.21 86.88 86.46 85.75 85.61 86.00
3/29/2015 11:00 to 10:10 85.25 85.94 87.29 87.44 85.71 85.38
3/29/2015 10:00 to 9:10 85.15 86.54 87.02 86.96 86.21 85.53
3/29/2015 09:00 to 8:10 86.11 85.67 85.88 85.71 85.61 86.77
3/29/2015 08:00 to 7:10 87.77 87.75 88.77 88.50 88.25 87.77
3/29/2015 07:00 to 6:10 88.46 88.35 88.33 88.64 89.27 88.23
3/29/2015 06:00 to 5:10 88.23 87.87 87.00 87.06 84.98 84.90
3/29/2015 05:00 to 4:10 84.59 85.48 84.57 83.45 82.53 82.26
3/29/2015 04:00 to 3:10 83.03 83.18 82.05 83.45 83.57 84.24
3/29/2015 03:00 to 2:10 85.63 87.00 88.41 87.46 79.81 77.44
3/29/2015 02:00 to 1:10 77.92 76.57 76.69 76.19 75.28 76.19
3/29/2015 01:00 to 0:10 76.19 76.27 76.52 77.31 76.86 77.15
3/29/2015 00:00 to 23:10 76.61 77.79 78.08 78.46 79.16 79.25
3/28/2015 23:00 to 22:10 79.68 79.75 79.37 79.41 80.06 80.12
3/28/2015 22:00 to 21:10 80.22 80.58 81.18 81.55 80.85 80.99
3/28/2015 21:00 to 20:10 80.47 80.16 79.60 80.35 80.56 80.31
3/28/2015 20:00 to 19:10 80.72 80.97 80.31 80.56 80.54 81.16
3/28/2015 19:00 to 18:10 81.08 81.68 81.55 81.16 81.62 80.49
3/28/2015 18:00 to 17:10 78.81 78.17 78.23 79.14 77.90 78.98
3/28/2015 17:00 to 16:10 78.29 79.64 80.06 80.70 79.89 80.70
3/28/2015 16:00 to 15:10 80.72 80.58 81.28 81.20 81.20 80.68
3/28/2015 15:00 to 14:10 81.22 81.08 81.18 81.47 81.26 80.56
3/28/2015 14:00 to 13:10 80.52 80.33 79.73 80.20 79.50 79.06
3/28/2015 13:00 to 12:10 79.06 79.10 79.02 79.14 78.96 78.98
3/28/2015 12:00 to 11:10 78.54 79.04 78.69 78.64 78.69 78.60
3/28/2015 11:00 to 10:10 77.90 77.23 77.48 78.37 78.71 78.10
3/28/2015 10:00 to 9:10 78.17 77.44 78.81 77.92 77.56 77.65
3/28/2015 09:00 to 8:10 77.79 77.50 76.77 77.38 77.98 78.56
3/28/2015 08:00 to 7:10 77.40 78.02 78.64 78.46 78.31 78.73
3/28/2015 07:00 to 6:10 78.75 78.08 77.73 77.23 76.98 76.98
3/28/2015 06:00 to 5:10 76.46 76.32 76.48 75.80 76.21 75.51
3/28/2015 05:00 to 4:10 75.71 76.67 75.42 75.17 75.03 74.63
3/28/2015 04:00 to 3:10 74.15 74.24 73.90 73.05 73.30 72.55
3/28/2015 03:00 to 2:10 74.59 75.09 75.98 76.19 74.94 73.18
3/28/2015 02:00 to 1:10 70.89 72.01 71.08 72.14 72.20 72.28
3/28/2015 01:00 to 0:10 72.49 72.03 72.18 72.43 71.54 70.54
3/28/2015 00:00 to 23:10 71.74 72.39 71.85 71.33 72.35 72.97
3/27/2015 23:00 to 22:10 73.39 72.80 72.78 71.58 71.70 73.41
3/27/2015 22:00 to 21:10 73.11 73.97 74.13 74.49 74.32 73.76
3/27/2015 21:00 to 20:10 74.72 75.44 75.28 75.67 76.13 76.73
3/27/2015 20:00 to 19:10 74.11 75.26 75.36 75.48 75.55 75.32
3/27/2015 19:00 to 18:10 75.90 75.24 75.82 75.61 75.38 73.55
3/27/2015 18:00 to 17:10 76.15 76.19 75.34 76.61 77.09 76.42
3/27/2015 17:00 to 16:10 76.50 76.96 77.29 75.76 75.69 75.76
3/27/2015 16:00 to 15:10 78.12 78.10 77.25 78.04 78.31 76.86
3/27/2015 15:00 to 14:10 78.54 79.27 78.64 78.21 78.02 78.54
3/27/2015 14:00 to 13:10 77.04 77.52 77.92 78.42 78.77 79.37
3/27/2015 13:00 to 12:10 79.02 78.98 79.16 77.21 76.96 78.44
3/27/2015 12:00 to 11:10 77.42 77.67 79.50 80.20 78.98 78.83
3/27/2015 11:00 to 10:10 77.92 77.19 78.12 76.71 78.08 77.96
3/27/2015 10:00 to 9:10 77.50 75.71 76.25 76.61 77.75 76.07
3/27/2015 09:00 to 8:10 75.98 75.61 76.36 76.61 76.27 75.17
3/27/2015 08:00 to 7:10 75.57 74.47 74.13 76.75 74.76 76.05
3/27/2015 07:00 to 6:10 77.31 76.92 76.25 75.84 76.71 75.61
3/27/2015 06:00 to 5:10 76.75 75.92 76.67 75.13 74.38 76.73
3/27/2015 05:00 to 4:10 77.04 74.80 74.63 73.86 74.61 74.26
3/27/2015 04:00 to 3:10 75.40 75.15 75.28 75.11 73.88 75.19
3/27/2015 03:00 to 2:10 75.59 76.61 75.09 74.88 73.30 73.26
3/27/2015 02:00 to 1:10 72.76 72.24 72.35 72.05 72.87 72.14
3/27/2015 01:00 to 0:10 71.06 71.85 72.22 71.06 71.24 70.87
3/27/2015 00:00 to 23:10 72.30 72.51 73.18 73.18 73.09 73.11
3/26/2015 23:00 to 22:10 73.09 72.37 72.93 73.09 73.61 73.36
3/26/2015 22:00 to 21:10 73.30 73.09 72.87 74.69 73.93 73.14
3/26/2015 21:00 to 20:10 74.28 74.42 73.99 74.34 73.99 73.93
3/26/2015 20:00 to 19:10 73.97 74.01 73.24 73.74 73.26 74.69
3/26/2015 19:00 to 18:10 74.03 73.09 73.03 73.63 74.07 74.34
3/26/2015 18:00 to 17:10 73.07 72.12 70.31 73.05 70.91 69.58
3/26/2015 17:00 to 16:10 69.35 70.87 70.20 71.20 72.20 70.52
3/26/2015 16:00 to 15:10 71.74 72.74 72.62 72.53 73.18 71.24
3/26/2015 15:00 to 14:10 73.22 73.49 73.24 74.22 73.80 75.44
3/26/2015 14:00 to 13:10 73.18 73.76 72.97 74.42 73.90 73.66
3/26/2015 13:00 to 12:10 74.76 73.99 74.26 74.45 75.65 75.98
3/26/2015 12:00 to 11:10 74.94 76.69 76.15 75.78 76.54 75.88
3/26/2015 11:00 to 10:10 -- -- -- -- -- --
3/26/2015 10:00 to 9:10 76.96 77.65 75.38 77.44 76.27 74.51
3/26/2015 09:00 to 8:10 74.80 75.09 77.13 78.40 78.91 76.63
3/26/2015 08:00 to 7:10 78.33 79.21 78.25 78.27 78.31 78.21
3/26/2015 07:00 to 6:10 78.00 78.83 77.79 77.61 76.61 77.21
3/26/2015 06:00 to 5:10 77.13 76.42 76.27 77.50 78.75 78.42
3/26/2015 05:00 to 4:10 77.23 78.98 78.56 78.69 77.67 77.00
3/26/2015 04:00 to 3:10 79.12 77.09 76.07 77.36 76.82 77.13
3/26/2015 03:00 to 2:10 77.83 78.42 77.77 77.69 77.58 76.03
3/26/2015 02:00 to 1:10 75.09 76.00 74.90 75.01 75.30 76.09
3/26/2015 01:00 to 0:10 78.54 76.86 77.00 77.36 75.80 75.94
3/26/2015 00:00 to 23:10 75.13 77.52 77.71 77.73 76.34 77.79
3/25/2015 23:00 to 22:10 78.10 77.38 77.36 78.21 78.71 77.75
3/25/2015 22:00 to 21:10 77.65 78.58 78.62 79.37 78.81 79.73
3/25/2015 21:00 to 20:10 79.23 79.25 79.06 77.48 77.11 78.00
3/25/2015 20:00 to 19:10 77.54 77.65 76.84 75.73 76.27 76.92
3/25/2015 19:00 to 18:10 76.75 79.31 77.67 77.79 79.12 77.02
3/25/2015 18:00 to 17:10 78.64 78.31 78.31 75.90 76.94 75.84
3/25/2015 17:00 to 16:10 77.46 77.36 76.96 77.88 79.79 77.06
3/25/2015 16:00 to 15:10 77.06 76.90 75.76 74.26 76.30 74.09
3/25/2015 15:00 to 14:10 77.77 77.25 77.23 78.42 77.56 79.04
3/25/2015 14:00 to 13:10 78.37 77.92 79.43 78.44 78.04 76.71
3/25/2015 13:00 to 12:10 79.10 79.37 79.77 79.50 79.06 78.44
3/25/2015 12:00 to 11:10 76.77 80.70 79.14 77.71 81.28 81.35
3/25/2015 11:00 to 10:10 79.89 81.51 82.53 82.51 83.20 81.72
3/25/2015 10:00 to 9:10 80.10 79.39 79.75 82.97 81.58 84.44
3/25/2015 09:00 to 8:10 83.20 82.51 81.16 83.01 82.93 83.09
3/25/2015 08:00 to 7:10 82.82 82.93 81.49 83.80 82.66 82.26
3/25/2015 07:00 to 6:10 81.01 80.91 82.76 83.05 82.74 82.28
3/25/2015 06:00 to 5:10 82.20 81.55 80.91 83.07 83.43 83.16
3/25/2015 05:00 to 4:10 83.09 82.26 83.09 84.32 84.09 85.15
3/25/2015 04:00 to 3:10 88.87 91.82 90.70 89.33 88.44 86.04
3/25/2015 03:00 to 2:10 83.97 85.75 85.65 84.53 83.86 85.36
3/25/2015 02:00 to 1:10 83.74 83.22 84.69 84.38 84.11 83.28
3/25/2015 01:00 to 0:10 84.76 82.24 81.74 82.14 82.28 83.01
3/25/2015 00:00 to 23:10 82.32 81.49 81.64 81.72 82.24 80.76
3/24/2015 23:00 to 22:10 80.31 81.26 81.89 82.05 82.74 81.39
3/24/2015 22:00 to 21:10 82.84 82.59 82.37 82.59 81.89 82.86
3/24/2015 21:00 to 20:10 81.35 81.37 80.62 83.09 82.45 80.99
3/24/2015 20:00 to 19:10 81.18 81.43 82.10 82.16 83.16 82.89
3/24/2015 19:00 to 18:10 82.22 81.89 81.70 81.16 81.06 81.10
3/24/2015 18:00 to 17:10 81.14 81.28 81.28 81.08 81.58 81.10
3/24/2015 17:00 to 16:10 81.70 79.79 79.68 78.06 78.52 78.75
3/24/2015 16:00 to 15:10 80.41 80.14 78.46 78.40 79.04 79.06
3/24/2015 15:00 to 14:10 79.06 80.56 80.68 80.99 82.53 80.83
3/24/2015 14:00 to 13:10 84.09 81.37 82.57 83.03 82.45 82.66
3/24/2015 13:00 to 12:10 81.31 83.16 82.32 83.72 83.03 80.39
3/24/2015 12:00 to 11:10 81.85 81.62 81.62 82.28 82.41 83.40
3/24/2015 11:00 to 10:10 81.62 82.74 83.09 82.80 81.24 83.13
3/24/2015 10:00 to 9:10 82.05 81.89 82.41 81.47 81.20 81.26
3/24/2015 09:00 to 8:10 81.89 81.91 81.93 81.33 82.14 80.02
3/24/2015 08:00 to 7:10 81.58 81.18 82.34 82.32 81.28 80.93
3/24/2015 07:00 to 6:10 81.26 80.72 80.79 81.53 80.62 80.60
3/24/2015 06:00 to 5:10 80.97 81.41 81.68 81.04 80.64 80.06
3/24/2015 05:00 to 4:10 82.41 80.18 81.24 80.37 81.80 81.16
3/24/2015 04:00 to 3:10 80.58 81.66 81.39 81.53 82.66 81.01
3/24/2015 03:00 to 2:10 80.64 81.68 80.45 80.49 81.12 81.20
3/24/2015 02:00 to 1:10 82.10 81.39 80.95 79.02 79.39 79.95
3/24/2015 01:00 to 0:10 79.60 79.75 80.72 80.37 80.91 81.01